Regional Weather Roundup
Issued by NWS Mt. Holly, NJ

Home | Current Version | Previous Version | Text Only | Print | Product List | Glossary On
Versions: 1 2 3 4 5 6 7 8 9 10 11 12 13 14 15 16 17 18 19 20 21 22 23 24 25 26 27 28 29 30 31 32 33 34 35 36 37 38 39 40 41 42 43 44 45 46 47 48 49 50
000
ASUS41 KPHI 261412
RWRPHI

REGIONAL WEATHER ROUNDUP
NATIONAL WEATHER SERVICE MOUNT HOLLY NJ
1000 AM EDT TUE SEP 26 2017

NOTE:  "FAIR" INDICATES FEW OR NO CLOUDS BELOW 12,000 FEET WITH NO
SIGNIFICANT WEATHER AND/OR OBSTRUCTIONS TO VISIBILITY.

 * = STATION DOES NOT REPORT PRECIPITATION (E.G. RAIN, SNOW, ETC.)
        OR FOG.

NJZ015>026-261500-
SOUTHERN NEW JERSEY

CITY           SKY/WX    TMP DP  RH WIND       PRES   REMARKS
POMONA         CLOUDY    71  69  93 NE10      30.03S
WILDWOOD*      CLOUDY    72  68  87 NE13      30.03R
MILLVILLE      CLOUDY    73  68  84 NE13      30.03S
WRIGHTSTOWN    CLOUDY    69  68  96 E7        30.03S
MOUNT HOLLY    CLOUDY    71  69  93 VRB5      30.05S
TRENTON        CLOUDY    71  67  87 NE7       30.06R

$$
NJZ001>014-261500-
NORTHERN NEW JERSEY

CITY           SKY/WX    TMP DP  RH WIND       PRES   REMARKS
SUSSEX         MOSUNNY   73  68  84 CALM      30.06S
ANDOVER*         N/A     75  66  73 CALM      30.08R
MORRISTOWN     MOSUNNY   72  66  83 CALM      30.07R
NEWARK         PTSUNNY   74  66  76 SE3       30.06R
TETERBORO      CLOUDY    76  67  73 CALM      30.05S
CALDWELL       MOSUNNY   73  68  84 E3        30.07S
ALLAIRE*       CLOUDY    68  67  96 E6        30.08R
TOMS RIVER*    CLOUDY    69  68  96 NE6       30.06S

$$
PAZ043-044-047-054-055-060>062-066>071-261500-
EASTERN PENNSYLVANIA

CITY           SKY/WX    TMP DP  RH WIND       PRES   REMARKS
PHILADELPHIA   PTSUNNY   71  66  84 E9        30.05S
NORTH PHILA    CLOUDY    73  67  81 NE8       30.07S
BLUE BELL*     MOSUNNY   72  66  83 E5        30.07S
DOYLESTOWN     MOSUNNY   71  66  84 N5        30.06S
QUAKERTOWN*    CLOUDY    73  66  78 E5        30.08S
PERKASIE*      FAIR      73  66  78 E6        30.08S
LANCASTER      MOSUNNY   76  68  76 NE5       30.06R
COATESVILLE    MOSUNNY   73  66  78 NE3       30.07S
READING        MOSUNNY   75  69  81 N6        30.05S
ALLENTOWN      CLOUDY    75  66  73 E5        30.07R
MOUNT POCONO   CLOUDY    73  64  73 CALM      30.12R
HAZLETON         N/A     79  66  65 CALM      30.13S
LEHIGHTON      FAIR      68  68 100 CALM      30.08R
WILKES BARRE   MOSUNNY   78  65  63 CALM      30.07S

$$
DEZALL-MDZ008-012-015-019-020-261500-
DELAWARE AND EASTERN MARYLAND

CITY           SKY/WX    TMP DP  RH WIND       PRES   REMARKS
WILMINGTON     CLOUDY    73  67  81 NE10      30.05S
DOVER          CLOUDY    71  66  85 NE10      30.01S
GEORGETOWN     CLOUDY    72  68  87 NE16      30.02R
EASTON         CLOUDY    72  68  88 NE10      30.05S
ABERDEEN       CLOUDY    71  67  88 E10       30.05R
PATUXENT       CLOUDY    71  68  90 NE10      30.00R
OCEAN CITY     CLOUDY    72  70  93 NE13G18   29.99S
WALLOPS ISLAND CLOUDY    72  71  97 NE17G26   29.97S
CAMBRIDGE      FOG       72  68  88 NE7G14    30.00R VSB 1/4
SALISBURY      CLOUDY    73  70  90 NE10      29.99S

$$
PAZ001-021-NYZ056-072-MDZ011-DCZ001-261500-
OTHER NEARBY LOCATIONS

CITY           SKY/WX    TMP DP  RH WIND       PRES   REMARKS
HARRISBURG     MOSUNNY   77  70  79 N7        30.05S HAZE
STATE COLLEGE  SUNNY     66  66 100 CALM      30.10R FOG
WILLIAMSPORT   MOSUNNY   74  69  85 SW5       30.05F
BINGHAMTON     MOSUNNY   73  67  81 VRB3      30.09S
NEW YORK CITY  CLOUDY    72  67  84 CALM      30.09R
BALTIMORE      PTSUNNY   72  67  84 NE8       30.03S
WASHINGTON DC  PTSUNNY   73  68  84 N10       30.03S

$$



USA.gov is the U.S. government's official web portal to all federal, state and local government web resources and services.